Regional Weather Roundup
Issued by NWS

Home | Current Version | Previous Version | Graphics & Text | Print | Product List | Glossary On
Versions: 1 2 3 4 5 6 7 8 9 10 11 12 13 14 15 16 17 18 19 20 21 22 23 24 25 26 27 28 29 30 31 32 33 34 35 36 37 38 39 40 41 42 43 44 45 46 47 48 49 50
000
ASUS43 KBIS 271802
RWRND

NORTH DAKOTA REGIONAL WEATHER ROUNDUP
NATIONAL WEATHER SERVICE BISMARCK ND
100 PM CDT WED MAY 27 2015

NOTE: "FAIR" INDICATES FEW OR NO CLOUDS BELOW 12,000 FEET WITH NO
SIGNIFICANT WEATHER AND/OR OBSTRUCTIONS TO VISIBILITY.


NDZ001>003-009>011-017-271900-
NORTHWEST NORTH DAKOTA

CITY           SKY/WX    TMP DP  RH WIND       PRES   REMARKS
WILLISTON      CLOUDY    78  46  32 S6        29.91F
6HR MIN TEMP:  51; 6HR MAX TEMP:  78;

MINOT          FAIR      75  50  41 E7        29.96S
MINOT AFB      FAIR      75  52  45 E8        29.96S
$$

NDZ018>021-031>035-040>046-271900-
SOUTHWEST NORTH DAKOTA

CITY           SKY/WX    TMP DP  RH WIND       PRES   REMARKS
BISMARCK       MOSUNNY   79  48  33 S10       29.97S
6HR MIN TEMP:  52; 6HR MAX TEMP:  81;

DICKINSON      PTSUNNY   76  49  38 S15G22    29.92F
GARRISON       NOT AVBL
HETTINGER ARPT PTSUNNY   74  52  46 SE16G23   29.96F
$$

NDZ004>008-012>016-024-026-027-054-271900-
NORTHEAST NORTH DAKOTA

CITY           SKY/WX    TMP DP  RH WIND       PRES   REMARKS
GRAND FORKS    FAIR      69  49  48 N9        29.97R
GRND FRKS AFB  FAIR      68  49  50 NE13G20   29.98S
DEVILS LAKE    FAIR      70  48  46 NE7       29.98S
$$

NDZ022-023-025-028>030-036>039-047>053-271900-
SOUTHEAST NORTH DAKOTA

CITY           SKY/WX    TMP DP  RH WIND       PRES   REMARKS
FARGO          FAIR      77  55  46 VRB5      29.95S
6HR MIN TEMP:  56; 6HR MAX TEMP:  77;

JAMESTOWN      FAIR      78  50  37 VRB5      29.96S
$$




USA.gov is the U.S. government's official web portal to all federal, state and local government web resources and services.